TimePDT,TemperatureF,Dew PointF,Humidity,Sea Level PressureIn,VisibilityMPH,Wind Direction,Wind SpeedMPH,Gust SpeedMPH,PrecipitationIn,Events,Conditions,WindDirDegrees,DateUTC
12:53 AM,46.0,37.9,73,30.27,10.0,Calm,Calm,-,N/A,,Clear,0,2012-10-06 07:53:00
1:53 AM,44.1,37.9,79,30.27,10.0,Calm,Calm,-,N/A,,Clear,0,2012-10-06 08:53:00
2:53 AM,42.1,37.0,82,30.26,10.0,Calm,Calm,-,N/A,,Clear,0,2012-10-06 09:53:00
3:53 AM,41.0,37.0,86,30.26,10.0,Calm,Calm,-,N/A,,Clear,0,2012-10-06 10:53:00
4:53 AM,41.0,37.9,89,30.25,10.0,Calm,Calm,-,N/A,,Clear,0,2012-10-06 11:53:00
5:53 AM,46.9,39.9,77,30.26,10.0,Calm,Calm,-,N/A,,Clear,0,2012-10-06 12:53:00
7:53 AM,44.1,39.9,85,30.27,10.0,Calm,Calm,-,N/A,,Clear,0,2012-10-06 14:53:00
8:53 AM,52.0,44.1,74,30.27,10.0,Calm,Calm,-,N/A,,Clear,0,2012-10-06 15:53:00
9:53 AM,59.0,43.0,55,30.27,10.0,Variable,3.5,-,N/A,,Clear,0,2012-10-06 16:53:00
10:53 AM,62.1,43.0,50,30.27,10.0,Calm,Calm,-,N/A,,Clear,0,2012-10-06 17:53:00
11:53 AM,64.0,43.0,46,30.26,10.0,ESE,3.5,-,N/A,,Clear,110,2012-10-06 18:53:00
12:53 PM,64.9,42.1,43,30.25,10.0,ESE,4.6,-,N/A,,Clear,110,2012-10-06 19:53:00
1:53 PM,64.9,41.0,42,30.23,10.0,ESE,3.5,-,N/A,,Clear,120,2012-10-06 20:53:00
2:53 PM,66.9,39.9,37,30.21,10.0,ESE,3.5,-,N/A,,Clear,110,2012-10-06 21:53:00
3:53 PM,69.1,37.9,32,30.19,10.0,North,6.9,-,N/A,,Clear,10,2012-10-06 22:53:00
4:53 PM,66.0,35.1,32,30.17,10.0,North,3.5,-,N/A,,Clear,350,2012-10-06 23:53:00
5:53 PM,63.0,35.1,35,30.16,10.0,North,4.6,-,N/A,,Clear,350,2012-10-07 00:53:00
6:53 PM,59.0,36.0,42,30.15,10.0,NNW,3.5,-,N/A,,Clear,330,2012-10-07 01:53:00
7:53 PM,52.0,37.0,57,30.15,10.0,Calm,Calm,-,N/A,,Clear,0,2012-10-07 02:53:00
8:53 PM,50.0,36.0,59,30.15,10.0,Calm,Calm,-,N/A,,Clear,0,2012-10-07 03:53:00
9:53 PM,46.9,37.0,68,30.15,10.0,Calm,Calm,-,N/A,,Clear,0,2012-10-07 04:53:00
10:53 PM,48.0,37.9,68,30.14,10.0,Calm,Calm,-,N/A,,Clear,0,2012-10-07 05:53:00
11:53 PM,46.0,39.0,76,30.14,10.0,Calm,Calm,-,N/A,,Clear,0,2012-10-07 06:53:00